Simultaneous Nadir Overpasses (SNOs) Predictions

Prediction of SNOs between NOAA-20 and AQUA Satellite Orbit:

Table of predicted SNOs for the next 14.0 days since TLE Epoch: 8/31/2024
Index Date (NOAA-20) Time (NOAA-20) Lat,Lon (NOAA-20) SZA (NOAA-20 ) Date (AQUA) Time (AQUA) Lat,Lon (AQUA) SZA (AQUA ) Distance(km) Time Diff (sec)
1 09/01/2024 05:39:44 -81.31,-158.35 100.49 09/01/2024 05:39:47 -81.32,-158.30 100.50 1.07 3
2 09/03/2024 16:52:06 -81.31, 33.08 99.56 09/03/2024 16:53:07 -81.30, 33.06 99.59 0.63 61
3 09/03/2024 17:42:49 81.31,-159.11 80.39 09/03/2024 17:42:27 81.32,-158.92 80.38 3.29 22
4 09/06/2024 04:55:10 81.31, 32.97 81.24 09/06/2024 04:55:43 81.32, 32.80 81.25 2.83 33
5 09/06/2024 05:45:55 -81.32,-159.49 98.78 09/06/2024 05:45:04 -81.32,-159.43 98.76 1.25 51
6 09/08/2024 16:58:17 -81.31, 32.11 97.85 09/08/2024 16:58:17 -81.30, 31.93 97.83 3.15 0
7 09/11/2024 04:10:39 -81.31,-136.40 96.90 09/11/2024 04:11:25 -81.30,-136.30 96.94 1.62 46
8 09/11/2024 05:01:21 81.32, 31.75 83.00 09/11/2024 05:00:45 81.32, 31.59 83.04 2.69 36



Historial Predications of SNOs between NOAA-20 and AQUA
